Theta_e
311 311 311 311 312 313 314 314 313 314 315 315 315 314 312 311 309 308 310 315 318 323 326 323 327 332 331 334 341 339 338 335 334 339 338 338 339 326 318 316 318 319 317 318 317 316 317 317 318 321 323 323 324 324 321 319 317 316 317 320 323 321 318 316 315 318 321 323 323 319 319 319 319 320
311 311 311 312 311 312 312 312 313 313 312 312 312 312 313 313 309 309 306 308 316 320 324 327 326 330 333 331 338 339 339 331 336 340 339 338 338 324 317 316 313 315 316 316 313 313 315 318 320 324 323 322 322 320 318 316 315 315 319 321 323 320 318 315 316 317 318 319 320 319 319 318 318 319
310 310 310 311 311 311 311 312 312 313 312 311 310 310 312 312 311 309 308 304 310 316 317 322 325 329 335 333 335 335 335 334 336 339 340 338 329 323 322 316 314 314 314 314 315 316 313 314 316 319 321 321 321 319 319 317 316 319 320 318 319 319 319 317 317 320 321 322 322 322 320 319 319 321
309 309 308 309 309 309 309 309 310 310 311 310 309 309 309 309 310 310 307 304 305 312 315 318 322 323 328 335 335 336 333 334 325 337 338 338 325 329 332 316 314 314 313 313 314 316 314 312 314 316 320 320 321 320 320 318 319 318 316 314 315 316 317 316 316 320 322 323 323 323 320 319 320 320
308 308 307 307 307 308 308 307 308 308 308 308 308 309 308 307 308 307 305 302 303 308 314 315 317 323 325 325 332 333 333 334 335 330 337 337 336 334 334 331 315 313 313 313 312 312 312 312 316 318 319 321 322 320 317 316 314 313 313 313 314 314 317 316 316 318 322 323 323 321 318 318 319 320
307 307 306 306 306 307 307 307 306 307 306 306 305 306 306 306 306 307 303 302 303 303 308 310 314 316 323 323 326 331 333 331 331 333 337 338 336 334 333 334 325 312 313 312 311 312 311 310 313 314 313 315 315 315 312 311 311 312 312 308 311 314 316 316 314 316 319 321 320 318 317 317 318 318
306 305 305 304 304 306 305 305 306 306 305 305 304 304 304 304 305 306 305 303 301 301 303 308 310 313 317 322 323 327 331 330 330 331 334 335 335 335 335 335 331 312 312 311 310 310 311 310 310 311 311 312 312 312 310 310 310 309 309 307 309 311 314 314 314 315 320 321 319 318 316 317 318 317
304 304 303 303 303 304 303 303 303 304 303 302 302 303 303 303 303 305 305 305 302 302 301 306 307 311 314 319 323 327 330 331 331 331 332 334 334 334 333 334 333 320 310 311 311 311 311 310 310 310 310 311 311 311 310 309 308 308 308 308 308 309 311 310 310 312 315 318 317 316 315 316 318 318
303 303 303 303 302 302 301 301 301 301 301 300 300 300 301 301 301 302 303 303 304 303 302 304 308 310 312 317 322 326 327 329 330 331 331 331 330 331 329 330 333 321 310 311 310 310 310 310 310 310 310 311 311 310 309 308 308 307 307 307 308 308 309 310 310 312 313 314 314 316 315 315 318 317
303 303 302 302 302 301 300 300 300 299 298 298 298 298 299 299 300 300 301 302 303 303 303 304 304 308 310 313 317 322 326 327 326 327 327 327 328 330 331 333 333 331 321 318 315 311 310 310 310 310 310 309 309 309 308 308 308 307 307 307 307 307 308 308 309 310 309 312 312 314 313 312 316 317
303 302 302 302 302 301 300 299 298 297 297 297 297 298 298 298 299 298 299 300 301 302 303 304 306 306 308 310 312 319 324 326 327 324 323 322 326 327 328 328 331 331 325 316 311 313 312 313 313 309 308 309 309 309 308 308 307 307 306 305 305 305 306 307 307 310 310 311 311 310 308 308 310 315
302 302 302 302 301 301 300 299 298 298 296 296 296 297 297 297 297 298 299 299 299 300 301 302 302 305 306 308 312 317 322 323 325 326 324 319 322 325 329 329 328 330 327 323 317 312 311 311 311 308 308 309 309 309 309 309 308 307 306 304 305 305 306 305 306 308 309 310 308 306 304 305 308 309
302 302 302 301 301 300 300 298 298 297 296 296 295 296 297 297 296 296 297 298 298 299 300 300 302 303 304 306 308 309 312 316 318 323 324 321 322 323 325 327 330 330 327 325 320 317 317 316 315 314 313 314 312 312 310 311 309 307 305 305 305 306 306 306 307 308 308 309 308 306 304 305 306 306
301 301 301 301 301 299 298 298 296 295 295 296 296 296 297 296 295 295 295 296 297 298 297 298 299 299 301 303 306 306 309 313 316 318 321 319 321 322 322 323 327 329 327 323 318 317 319 317 316 316 315 317 314 317 315 317 313 308 304 305 305 305 305 306 306 306 307 307 307 305 304 304 304 305
300 300 300 300 300 299 298 298 296 295 294 294 294 294 295 296 296 296 295 296 297 297 297 298 298 298 299 301 305 306 307 309 312 315 317 319 321 319 317 316 321 328 326 322 319 316 318 318 316 316 317 317 317 318 317 311 309 306 305 305 305 305 305 305 305 305 305 305 305 304 303 303 304 306
299 298 298 298 299 299 298 298 298 296 295 294 293 293 294 294 294 294 297 296 295 296 295 296 297 298 298 300 303 304 306 307 309 312 312 313 317 318 317 318 319 326 326 321 318 316 318 318 318 316 318 319 319 318 313 308 307 306 305 305 304 304 305 305 305 304 304 304 304 304 303 303 303 304
298 298 297 297 297 297 299 299 297 296 296 295 294 295 296 296 296 294 293 294 298 298 297 296 296 298 299 299 301 304 304 305 304 305 306 310 313 319 319 319 321 324 325 321 319 316 318 318 316 317 318 319 319 318 310 308 306 305 305 304 304 304 304 305 305 304 304 304 304 304 304 304 304 304
298 298 297 296 296 297 298 298 296 295 295 295 296 297 298 298 298 296 295 295 295 297 298 297 296 298 300 298 299 302 303 302 302 303 304 308 311 313 317 322 323 324 325 321 319 317 318 318 318 317 319 322 321 321 314 306 306 305 304 304 303 303 303 304 304 303 303 303 303 303 304 303 303 303
299 298 298 297 297 297 297 297 294 294 294 294 295 296 296 296 297 298 298 299 299 298 297 296 296 297 298 299 299 301 302 303 304 306 306 307 307 307 308 314 322 322 323 323 320 314 318 320 317 317 319 321 320 321 311 305 305 305 304 303 303 303 303 303 303 302 302 302 303 302 302 302 301 301
299 298 298 297 297 297 297 295 291 291 293 294 294 294 295 296 297 298 298 295 295 296 296 296 296 297 298 297 298 299 300 301 302 304 305 305 304 305 307 310 318 318 322 323 320 317 318 319 317 317 320 320 319 320 319 306 305 304 303 303 303 302 302 302 302 301 302 302 302 302 301 300 299 299
299 299 298 297 297 297 297 293 289 290 291 295 294 293 293 294 295 296 298 295 293 293 293 293 293 293 293 293 293 293 293 295 299 300 299 299 302 304 306 310 315 318 322 322 322 320 318 320 319 318 319 318 317 318 316 313 305 304 303 303 302 302 302 302 301 301 301 301 301 300 299 298 298 298
299 299 299 298 296 296 295 291 289 289 293 294 293 293 292 291 292 294 295 295 295 294 293 294 294 294 294 294 294 295 296 296 297 298 296 301 304 305 308 311 316 321 320 318 323 319 318 320 320 317 318 315 317 318 316 313 310 304 303 302 302 302 301 301 300 300 301 301 300 299 298 298 299 305
298 298 298 297 295 295 293 289 290 289 292 294 294 292 291 290 290 291 292 292 292 293 294 295 296 296 298 301 301 302 298 297 300 304 302 303 303 304 310 313 314 313 316 320 323 317 318 317 318 317 310 309 312 316 315 312 311 310 309 307 306 302 301 300 299 300 300 300 300 299 298 298 301 311
297 297 298 297 292 290 290 289 289 289 290 293 294 293 291 289 288 291 292 293 292 292 293 293 294 295 297 298 299 300 301 302 304 303 304 305 307 307 310 313 313 313 317 319 321 317 318 317 315 318 314 309 305 309 314 312 311 310 309 308 307 301 301 300 300 299 300 300 299 298 298 298 303 313
296 296 296 298 294 291 290 290 289 290 290 291 295 293 291 291 291 291 292 292 292 292 293 293 293 293 295 296 297 298 299 299 301 302 303 304 306 306 309 313 313 315 321 318 311 319 313 315 314 315 314 312 310 308 311 310 310 309 308 308 306 304 304 305 304 306 300 298 298 297 297 299 302 309
296 296 296 297 294 291 290 289 290 290 290 290 295 293 289 289 289 292 293 293 292 292 292 291 291 292 292 293 294 295 297 298 299 301 302 303 305 307 309 311 312 314 318 317 305 319 315 311 313 312 312 308 306 309 306 306 307 309 309 309 307 304 305 304 305 306 305 304 302 299 300 299 301 301
296 297 297 297 294 290 290 290 290 290 290 292 293 289 289 290 290 292 293 292 291 291 291 290 290 290 291 291 292 294 295 297 298 300 301 303 304 305 308 310 312 313 314 314 313 318 315 313 312 312 309 308 306 306 306 305 305 308 308 307 305 304 305 305 304 303 304 303 302 298 298 298 298 298
297 296 297 296 291 290 290 290 290 290 291 294 290 289 289 290 291 293 292 292 291 290 290 289 290 290 291 291 292 293 296 297 298 299 301 303 304 306 308 309 308 311 313 314 313 316 317 313 311 313 312 307 305 304 304 308 306 307 306 306 304 304 305 305 304 303 303 303 301 300 301 302 304 304
298 293 291 290 290 290 290 291 291 292 292 290 290 290 290 293 294 293 292 291 290 289 289 289 289 290 290 291 293 294 296 298 299 298 299 302 303 304 306 306 306 306 308 310 312 314 316 314 312 312 312 310 307 306 306 304 305 306 304 301 300 302 304 305 304 303 302 301 300 300 302 303 304 305
291 290 291 291 291 292 293 296 296 295 296 291 291 291 293 296 294 293 292 291 289 289 289 289 289 290 291 293 294 295 296 297 296 297 297 299 299 301 301 302 303 304 306 307 310 313 315 314 312 312 309 308 308 307 306 304 303 305 302 303 301 301 303 303 302 301 301 300 300 302 304 305 304 304
297 296 295 294 292 293 291 291 292 293 293 295 295 296 296 295 295 294 293 291 290 290 290 290 291 292 293 294 294 293 293 294 295 296 296 297 298 299 300 299 299 301 302 305 306 307 312 312 313 313 308 306 305 306 305 305 304 303 303 303 301 298 300 302 301 300 301 300 301 302 303 304 304 302
298 298 294 294 297 297 297 296 296 296 296 295 294 295 295 294 292 293 292 292 293 292 292 293 293 293 293 292 292 293 293 294 294 295 296 296 297 298 298 296 295 298 299 301 303 304 302 310 310 308 307 306 305 304 305 304 303 303 301 301 302 301 301 299 299 300 301 301 300 300 301 302 302 303
298 298 296 296 295 294 293 293 294 294 294 295 295 295 295 294 293 293 293 293 293 292 292 291 291 291 292 292 293 292 292 293 294 295 295 296 296 297 297 294 294 294 295 297 299 300 301 301 300 300 299 298 299 302 303 300 302 302 300 300 299 298 300 300 300 299 301 300 299 299 299 301 302 303
294 294 294 294 293 293 293 292 291 292 293 293 293 293 291 293 293 292 292 291 293 291 290 291 291 291 291 292 292 292 291 292 293 294 292 293 294 293 293 293 293 293 294 294 297 298 299 300 300 300 299 297 296 295 297 301 300 300 300 299 299 298 299 299 300 301 300 299 298 298 298 298 300 301
293 292 292 292 292 292 293 291 291 291 291 291 291 292 293 294 293 292 292 292 292 291 291 290 291 291 292 291 292 291 291 291 292 293 293 294 293 292 291 291 291 292 292 292 294 297 299 299 299 298 299 298 296 295 294 295 299 299 299 299 299 297 297 299 299 300 300 299 299 294 294 294 295 297
292 292 292 292 292 292 292 291 291 292 292 291 291 291 291 291 292 292 291 292 292 292 291 290 289 290 291 292 291 292 291 290 291 292 292 292 292 292 291 289 289 290 292 291 291 294 297 298 298 296 293 292 290 288 289 293 293 296 297 295 297 297 297 298 299 299 298 296 295 294 290 290 292 294
292 292 293 293 293 293 292 292 292 293 293 292 292 292 292 291 292 293 293 292 292 291 291 291 290 290 291 291 291 291 291 291 290 291 291 292 292 291 290 289 289 289 289 290 291 291 294 294 295 293 290 288 286 285 285 290 291 292 296 295 294 297 296 296 295 295 296 296 295 295 292 291 290 292
292 293 293 292 293 293 293 293 292 292 293 293 293 293 293 293 294 294 294 293 292 292 292 291 290 290 291 292 292 292 292 292 291 290 291 291 291 290 290 289 289 289 288 288 289 289 290 291 292 293 291 287 286 286 285 286 286 288 290 295 292 292 295 293 291 291 291 293 293 293 293 290 290 291
294 293 292 293 294 293 293 292 292 292 294 293 293 293 293 294 293 293 292 291 292 291 292 291 291 290 291 292 292 292 292 291 291 291 291 291 291 290 289 290 289 290 289 288 288 287 287 287 287 289 290 287 285 285 285 283 283 285 288 290 292 290 289 289 287 287 287 286 286 287 288 289 289 288
294 294 293 293 294 294 294 294 294 294 293 293 293 293 293 292 292 291 291 290 290 291 291 291 291 291 292 292 293 294 293 293 291 291 291 292 291 291 290 290 290 289 289 287 287 287 287 286 286 286 286 286 286 287 287 286 286 287 286 287 288 288 288 289 287 287 286 287 288 287 286 287 286 289
295 294 295 294 295 294 294 294 294 294 294 293 294 292 293 294 293 291 291 291 290 291 291 291 291 292 292 293 293 293 292 293 293 292 292 292 291 290 289 288 289 289 288 287 287 287 286 286 287 287 289 290 290 291 288 285 283 284 284 285 287 288 288 288 289 288 287 287 288 287 286 286 286 286
295 295 295 296 295 295 295 295 295 294 294 293 293 293 294 292 292 290 291 290 290 291 291 291 291 291 292 293 293 293 293 293 293 293 292 292 293 292 290 290 289 288 287 286 286 286 290 293 291 291 291 289 288 286 284 284 283 284 285 285 286 287 288 288 288 289 289 289 287 287 286 287 287 286
295 295 295 295 295 295 295 294 294 294 293 293 293 294 293 292 292 292 291 290 290 291 291 291 292 292 292 293 293 293 293 293 293 294 293 293 293 292 291 290 289 289 288 288 289 289 290 292 292 290 290 289 287 287 285 285 285 285 285 285 285 287 287 288 289 289 290 290 290 290 291 288 287 285
296 296 295 295 296 295 295 295 294 294 294 293 292 293 292 292 291 291 291 290 290 290 291 291 291 291 292 293 293 293 293 293 294 294 294 293 293 293 293 291 290 290 290 289 289 289 290 290 290 290 288 287 288 287 286 286 286 286 286 286 287 287 286 287 289 289 289 288 289 290 290 290 290 290
296 296 296 295 295 295 295 295 294 294 294 292 292 291 291 291 291 291 291 290 290 290 291 291 291 291 292 292 293 292 293 292 293 294 294 294 294 294 293 294 293 291 291 290 290 289 290 290 291 291 289 288 288 287 287 287 287 287 287 287 286 287 287 288 288 287 287 287 287 288 289 289 289 289
Wind_Speed
9 9 10 9 9 9 10 9 9 9 9 9 9 9 9 10 12 12 12 13 14 14 14 13 13 11 11 7 5 8 11 11 11 12 14 14 14 18 23 24 23 22 22 22 23 22 22 22 21 22 22 21 21 21 20 20 19 19 20 19 19 18 14 19 19 20 21 23 23 19 19 19 18 16
9 9 10 10 9 9 10 10 9 9 9 9 10 9 10 9 10 10 12 13 12 14 15 14 13 15 13 11 4 6 9 12 11 13 13 14 14 18 23 23 22 21 21 23 22 23 23 23 23 23 23 23 23 21 21 20 20 20 21 21 20 19 15 19 20 20 20 20 20 19 19 18 17 16
9 10 11 10 9 10 10 10 10 10 10 9 9 9 10 10 9 11 10 13 9 9 13 14 15 14 12 13 11 8 10 9 10 12 13 14 16 17 18 23 23 23 22 22 22 23 23 24 23 23 23 21 22 22 22 21 21 22 22 20 20 19 17 19 21 22 21 20 19 20 19 18 17 17
9 10 10 10 10 10 10 10 10 10 10 10 11 10 10 10 10 10 10 11 16 12 11 14 15 16 14 16 13 9 9 11 10 13 13 14 12 12 12 20 23 21 22 22 22 23 24 24 23 22 24 25 22 22 23 23 23 24 22 21 20 19 18 19 21 22 21 20 20 20 18 18 17 17
9 10 11 11 11 11 11 10 11 11 11 11 11 11 11 11 10 10 11 12 15 14 10 12 14 15 14 15 15 14 11 9 9 13 13 13 11 10 10 11 20 23 24 23 23 23 22 23 23 23 23 23 25 24 24 24 23 23 23 22 20 19 18 19 21 22 20 20 19 20 18 17 17 18
9 10 11 12 12 12 12 12 12 11 12 12 12 12 12 12 12 11 11 12 12 16 15 13 14 15 14 14 15 13 10 9 11 14 11 10 12 11 9 9 11 23 22 23 24 24 24 23 23 22 22 23 23 22 24 25 24 23 24 23 21 19 18 20 21 21 20 19 18 19 18 17 18 19
10 11 11 12 12 11 13 12 12 12 12 12 13 13 13 13 13 13 12 12 14 16 16 14 15 14 14 14 14 16 13 11 11 11 12 11 10 10 10 11 9 20 22 24 23 24 24 23 24 23 23 23 24 24 23 23 24 24 24 23 22 19 19 20 21 22 21 20 18 19 18 18 19 19
11 12 12 12 12 13 13 13 12 12 13 13 12 14 13 13 13 12 12 13 14 15 17 15 14 14 15 15 15 14 13 12 10 11 12 12 11 9 11 11 12 15 25 25 25 24 24 24 24 24 24 24 24 25 26 24 23 23 24 23 23 20 20 19 20 21 22 21 19 20 19 19 20 21
11 12 12 13 13 14 13 13 13 13 16 14 13 13 14 13 13 13 13 14 14 15 17 16 14 14 15 15 16 15 14 11 11 9 11 11 15 12 14 12 14 15 23 23 24 23 24 24 25 25 24 25 25 25 25 25 25 25 25 24 23 21 20 20 20 21 21 20 19 21 20 20 20 19
11 11 13 13 14 14 15 13 14 14 16 14 13 15 14 14 15 16 16 14 14 15 15 16 16 14 13 14 14 15 15 12 11 8 9 11 12 12 11 11 10 9 10 11 14 20 20 24 26 25 24 24 25 24 25 26 26 24 23 24 24 23 22 21 21 21 21 20 19 21 20 19 20 19
11 12 13 14 14 14 14 14 14 15 16 14 17 16 15 15 15 16 16 15 15 14 15 14 13 14 13 12 14 15 14 14 12 12 9 9 9 11 13 13 11 9 10 17 21 19 18 21 19 23 25 27 27 28 28 27 27 26 25 24 24 23 22 22 22 22 21 20 19 20 20 19 19 19
12 13 14 13 13 14 13 14 15 16 16 16 17 16 16 16 16 16 15 14 14 14 14 13 14 13 13 12 13 14 13 12 11 9 8 11 10 10 11 13 11 9 10 10 14 16 18 17 22 25 25 27 28 28 26 27 26 27 25 24 24 23 23 22 22 22 22 21 19 19 19 19 18 18
12 13 13 12 13 14 16 15 13 14 15 15 17 17 17 18 17 15 14 14 14 14 14 14 13 13 13 12 13 13 12 12 13 10 8 10 9 9 9 11 13 10 10 7 10 11 10 9 10 8 10 15 24 23 26 22 27 26 25 26 26 24 23 22 22 22 22 21 20 20 20 19 19 18
13 14 13 13 18 16 16 16 14 14 17 19 17 18 18 18 17 15 15 15 14 14 15 14 14 15 14 13 13 14 15 15 14 14 12 12 10 7 10 10 10 10 7 8 10 12 9 12 7 10 10 11 16 10 15 15 19 23 26 26 26 25 24 23 22 22 22 21 20 20 20 20 19 18
13 14 14 14 15 16 18 18 17 18 20 19 20 21 20 19 18 17 17 16 15 15 15 14 15 15 16 16 15 14 15 14 13 10 12 13 10 9 10 8 5 9 8 8 7 10 12 12 10 9 9 11 12 11 15 23 26 28 28 27 26 25 25 23 23 22 22 21 21 21 21 20 19 18
13 14 14 14 13 14 18 18 19 22 22 21 21 21 21 20 19 15 13 16 16 16 16 16 16 16 16 17 15 14 14 14 13 12 13 13 13 11 11 9 9 6 10 8 8 10 9 12 13 12 12 13 10 14 21 27 27 27 27 27 27 26 25 24 23 22 21 21 21 21 21 20 19 18
13 13 14 14 13 14 22 18 19 21 22 23 23 21 20 19 17 17 16 16 15 16 17 18 18 16 16 18 17 15 16 16 17 15 12 11 12 12 11 11 8 6 12 9 8 9 8 11 11 12 14 14 15 16 22 26 26 28 28 28 27 27 27 26 25 23 22 22 22 21 21 20 19 18
13 13 14 14 15 16 17 17 20 21 21 21 20 19 18 17 19 18 18 17 17 15 14 15 16 17 17 17 18 20 18 18 17 15 16 13 12 12 12 11 9 4 10 13 8 7 8 12 11 12 12 13 14 14 18 25 25 26 27 27 27 26 25 26 25 24 23 22 21 21 21 20 20 18
13 14 14 15 16 17 17 16 20 22 21 20 19 19 19 19 19 19 18 16 15 15 14 15 17 17 18 18 19 19 16 18 17 16 16 15 14 14 15 15 10 7 10 12 10 11 9 10 12 12 12 13 12 13 19 26 27 27 27 27 27 27 27 26 24 24 22 22 21 21 20 20 19 18
12 13 14 16 17 17 18 19 23 20 20 20 19 19 19 19 19 18 17 16 15 17 17 16 17 17 18 21 20 19 17 17 18 17 16 15 13 12 11 13 9 10 8 13 12 9 8 12 12 11 10 11 11 12 12 24 27 27 27 28 28 27 26 25 25 24 23 21 21 21 20 19 18 17
12 13 14 16 16 16 16 20 22 22 23 19 19 19 20 19 17 17 17 18 19 19 21 22 23 24 24 24 25 25 25 19 15 13 13 14 10 11 13 12 9 9 7 10 13 12 10 11 12 10 11 13 13 12 12 15 23 26 27 27 26 26 26 26 25 24 23 22 21 21 20 19 17 17
12 14 12 15 16 16 17 21 21 21 20 19 19 19 21 21 20 19 19 17 16 19 20 20 20 19 20 19 18 18 17 15 11 8 11 12 8 12 11 12 9 7 8 10 12 12 12 9 11 11 7 8 9 12 12 15 19 26 24 27 27 26 25 25 26 25 24 23 22 21 20 19 18 14
12 13 12 12 14 16 18 20 20 21 19 18 18 20 19 19 21 20 22 20 20 19 18 17 17 16 16 14 13 12 15 16 14 10 11 11 11 12 11 11 9 8 7 7 12 13 7 9 11 10 7 9 5 7 12 14 14 15 14 17 19 25 26 26 25 25 24 23 23 22 22 22 19 12
12 12 13 13 15 18 20 20 20 19 19 16 17 18 18 18 18 20 20 20 19 18 17 16 16 16 15 13 13 12 12 11 11 9 9 9 9 12 12 10 10 10 3 6 11 13 6 8 10 11 12 10 7 6 9 12 16 16 15 14 13 18 21 22 20 25 24 23 23 23 23 24 19 13
11 12 13 13 15 19 20 20 20 18 18 18 17 18 16 16 18 18 14 19 24 17 17 16 14 13 13 13 12 12 11 10 9 8 8 9 8 10 11 9 9 9 5 6 14 10 6 7 9 10 8 6 5 8 6 6 7 14 15 15 14 13 12 13 13 14 19 22 22 23 23 24 21 15
11 12 13 12 16 20 20 20 19 17 16 18 16 16 20 22 22 17 15 13 13 14 14 16 14 13 13 12 13 13 12 11 11 11 8 8 8 8 8 8 7 6 5 4 15 12 7 7 10 12 9 7 3 8 10 7 6 9 10 11 13 14 15 13 13 15 13 11 12 16 18 22 19 14
11 12 13 13 18 20 20 20 19 16 14 16 16 19 21 21 22 18 14 13 13 12 15 15 12 11 10 12 12 11 11 12 12 12 9 9 8 8 7 7 8 6 2 1 8 10 9 7 6 11 9 5 9 8 10 11 9 10 11 10 10 12 12 12 13 15 15 12 10 18 19 20 11 4
11 12 13 14 18 18 18 19 17 10 13 12 17 17 19 20 18 16 17 16 16 14 14 12 11 12 12 12 12 13 13 12 12 11 10 9 9 8 5 4 3 3 3 3 6 9 8 5 7 9 10 12 12 12 9 6 12 17 16 10 10 11 11 11 11 12 11 10 11 10 9 9 6 8
11 9 12 14 15 15 13 16 15 15 16 14 15 16 17 18 18 17 15 15 15 14 14 14 14 12 11 12 12 13 13 11 11 12 11 10 9 9 7 6 7 8 6 3 4 7 8 6 5 6 5 8 11 11 11 12 11 11 14 18 13 12 12 12 13 13 12 12 11 11 11 11 10 9
13 7 10 11 13 15 15 15 15 15 13 14 17 16 17 17 14 14 16 16 16 15 13 14 14 13 12 13 14 13 11 10 10 11 10 10 12 10 8 7 8 8 8 7 5 4 5 5 6 6 2 2 1 8 11 12 10 11 15 15 12 10 10 12 12 13 13 12 11 12 11 11 11 11
12 12 11 10 10 12 11 14 13 15 15 16 16 18 18 15 13 14 12 13 14 13 14 15 14 12 12 12 13 13 12 11 11 11 10 10 11 11 9 8 10 9 9 9 7 7 1 3 4 8 8 6 4 3 3 7 13 13 12 13 18 16 13 13 13 13 13 13 13 11 11 11 11 10
12 12 12 12 13 13 14 15 14 14 14 14 16 16 16 16 14 14 16 16 12 13 13 13 13 13 14 15 14 13 12 11 12 13 12 14 13 13 10 9 10 8 9 10 9 10 8 5 6 7 6 3 6 7 6 4 8 12 11 12 9 10 11 14 14 13 13 13 11 11 10 10 11 10
11 11 11 12 13 14 13 15 15 16 16 15 16 17 17 17 16 14 13 12 12 13 14 14 14 14 14 14 14 14 13 13 12 14 13 13 13 11 11 12 10 10 10 10 9 9 9 11 13 14 12 12 12 7 6 9 4 3 10 11 13 14 12 11 13 14 14 14 12 11 11 9 9 10
8 10 10 12 13 13 14 15 14 15 16 15 15 16 16 16 16 15 15 15 13 12 14 13 13 14 14 13 14 14 14 13 13 14 15 15 14 13 12 13 12 10 9 10 9 9 8 9 10 11 14 15 16 15 11 4 8 7 6 8 11 15 12 13 13 15 13 13 14 12 11 8 6 6
8 9 11 11 11 12 14 13 13 13 14 14 14 14 15 16 17 14 15 15 13 12 12 13 13 12 14 13 12 13 14 13 13 13 14 14 15 14 14 13 12 11 10 10 10 9 6 5 8 10 9 10 13 14 23 16 5 7 7 9 10 13 12 11 13 12 13 12 14 14 12 12 10 7
9 10 10 11 11 13 12 13 14 14 13 12 13 13 14 15 15 14 14 15 15 13 12 12 12 13 14 14 12 12 13 13 13 14 16 16 15 14 13 12 12 13 12 11 11 9 7 6 5 9 9 8 9 9 8 20 20 6 6 9 10 13 11 10 11 11 11 10 13 16 11 11 9 9
9 10 11 12 13 13 12 13 13 14 15 14 13 13 14 15 16 16 15 14 15 12 12 12 12 11 11 12 12 10 11 12 12 13 16 16 15 15 14 14 13 12 13 12 10 10 9 9 7 8 11 9 10 10 7 5 21 25 8 9 9 11 13 12 11 10 8 11 10 12 14 13 12 9
10 10 12 12 13 13 13 13 14 12 14 14 14 14 14 15 16 15 16 16 15 13 13 13 12 11 11 11 12 12 11 11 11 12 16 16 16 15 14 14 15 14 14 13 12 11 10 10 9 6 8 10 9 8 9 9 8 15 22 10 10 9 12 13 11 11 9 8 11 9 12 13 13 11
10 10 10 11 12 12 12 12 13 12 14 14 14 14 14 14 14 14 14 15 16 14 14 14 13 11 10 11 10 11 11 11 12 11 14 17 17 17 15 15 15 15 15 15 15 15 15 16 13 10 9 9 9 8 9 12 13 12 20 27 11 11 8 13 13 12 10 14 18 15 13 14 18 21
10 10 9 10 11 11 11 12 13 12 11 12 13 13 13 12 12 13 13 13 14 14 13 13 14 13 12 11 11 11 13 14 12 13 12 13 16 16 15 14 14 14 15 15 15 15 14 13 12 12 13 12 11 9 11 14 12 14 19 24 28 16 8 10 14 14 12 13 15 16 13 8 11 9
9 10 9 9 10 10 10 11 11 11 11 11 11 11 12 13 13 13 12 13 12 13 13 13 13 12 14 14 11 11 12 13 14 13 13 11 12 13 15 15 15 14 14 14 14 14 15 12 11 10 9 7 7 10 15 15 15 13 13 17 24 27 24 18 12 13 12 9 12 14 13 10 11 9
8 9 8 9 9 10 10 11 10 10 11 11 10 11 12 11 11 14 12 12 13 12 12 13 13 13 13 13 13 11 13 15 15 15 14 15 14 13 15 15 14 13 13 13 13 13 12 12 11 12 10 9 12 17 14 13 14 12 11 12 16 17 24 27 25 22 13 10 10 11 11 9 9 9
8 8 9 9 8 9 9 10 10 10 10 10 10 11 9 10 11 12 12 13 13 12 12 13 13 13 13 13 13 14 13 13 14 15 15 15 16 14 13 13 13 13 13 12 12 12 13 12 12 11 10 10 11 14 15 13 12 12 12 11 12 11 14 19 23 25 23 22 16 10 6 3 6 8
7 8 8 8 8 9 9 9 10 10 10 10 8 9 9 10 11 11 11 12 12 12 12 12 12 12 13 12 13 13 14 13 13 14 14 15 15 15 13 11 12 12 13 13 13 13 13 14 14 12 13 12 8 11 14 13 13 11 10 9 7 9 10 8 11 16 19 21 20 17 19 17 15 14
6 7 8 8 8 8 8 8 9 9 9 8 8 8 8 9 10 10 10 11 12 12 11 12 12 12 12 12 12 13 13 14 14 13 13 13 13 14 15 15 13 13 13 11 12 13 13 12 13 13 14 13 11 13 11 12 12 10 10 12 11 9 8 8 9 9 9 9 15 17 18 17 16 16
Wind_Direction
352 352 345 341 336 340 338 333 333 329 328 328 327 329 324 325 319 321 313 310 311 311 315 309 299 304 298 272 259 246 244 233 213 218 218 219 221 199 201 203 204 202 201 203 206 206 204 201 196 194 198 202 197 190 184 178 179 177 182 191 194 199 190 178 180 187 187 185 184 180 179 178 180 179
352 351 349 348 344 348 339 336 331 330 331 330 332 327 325 326 319 314 309 306 303 308 316 313 313 312 305 298 234 243 254 241 209 227 223 221 219 203 198 207 203 202 201 201 201 204 206 204 199 194 195 197 196 190 183 178 180 180 183 193 194 194 188 176 176 186 190 187 182 178 177 177 181 177
351 351 348 349 348 349 342 336 337 335 337 337 329 326 323 322 320 318 314 310 299 317 308 308 311 306 289 285 297 315 296 264 216 231 228 230 225 205 199 204 204 201 200 202 200 202 204 206 204 198 193 195 197 191 184 181 179 183 185 192 195 191 186 177 177 185 191 188 182 179 178 179 180 173
350 349 347 351 351 349 343 339 335 336 340 336 330 328 325 320 320 319 315 303 301 309 309 307 307 305 310 305 291 278 270 273 211 246 236 232 219 202 207 203 204 199 200 202 201 201 202 204 203 199 198 198 195 192 185 181 182 181 185 190 195 191 186 179 178 184 189 189 185 182 181 182 179 172
355 352 348 351 355 352 346 341 336 339 340 336 332 329 328 324 323 325 319 308 305 302 307 308 305 311 310 301 293 282 276 272 262 237 240 235 223 210 211 200 197 201 201 201 200 202 202 202 203 199 196 192 195 192 187 181 181 180 182 187 195 190 187 181 179 183 188 189 186 182 182 183 180 174
359 354 353 353 354 354 347 342 340 339 338 337 330 330 330 325 323 325 316 308 303 302 311 310 309 306 304 298 295 275 265 262 261 250 232 226 225 215 209 206 189 198 201 201 200 200 201 200 201 197 194 193 191 192 183 180 180 180 181 184 194 190 187 184 180 181 187 189 185 181 181 182 180 177
357 357 356 356 354 351 346 346 341 340 340 336 331 329 328 323 321 320 318 311 306 305 302 305 304 306 306 299 296 292 282 272 272 267 250 228 223 220 209 210 197 190 199 201 202 201 200 198 199 195 192 190 184 181 186 183 181 181 181 183 190 190 187 186 182 182 186 189 185 179 178 180 181 178
356 358 356 357 355 352 347 345 341 342 341 336 332 329 327 324 321 317 314 310 305 303 301 302 303 304 303 299 293 293 285 277 262 258 263 252 230 218 219 214 218 190 195 198 201 201 200 198 199 195 189 190 187 183 183 183 182 182 182 182 186 188 185 186 184 184 186 191 185 179 177 180 181 180
358 355 356 355 355 356 348 345 344 342 340 337 332 330 328 324 321 316 312 307 303 302 300 299 298 300 297 296 298 294 288 279 273 261 256 250 249 222 222 221 221 195 190 199 200 201 201 199 198 196 192 190 188 185 182 182 182 184 182 181 185 186 186 186 186 185 188 189 184 180 179 182 183 179
1 356 357 354 358 355 351 348 345 343 339 336 331 328 326 324 321 317 313 306 302 299 298 300 301 299 299 303 299 298 290 282 280 268 251 256 250 240 220 214 206 200 191 198 200 202 201 201 198 196 190 190 188 185 184 184 184 183 183 182 184 186 186 186 187 186 187 187 183 180 181 183 184 181
1 360 359 356 358 353 352 348 343 340 338 336 331 326 323 321 319 317 313 311 307 302 300 300 297 298 296 293 296 295 298 297 284 278 277 256 247 238 232 225 218 195 187 195 194 196 198 199 198 195 192 189 186 186 186 185 184 183 183 184 184 185 187 187 187 187 187 185 181 181 180 183 185 184
3 1 360 357 356 352 348 345 340 338 336 332 328 324 322 320 317 314 313 310 308 305 303 301 304 301 300 300 292 294 298 289 280 265 259 265 259 244 226 219 209 199 174 188 203 202 199 200 198 195 192 192 189 187 186 185 184 182 181 182 185 187 187 188 187 187 187 185 180 181 180 182 185 186
4 1 1 356 354 349 347 341 333 332 330 328 325 322 319 317 315 311 308 308 305 306 307 304 302 301 301 299 301 304 304 300 300 300 274 262 258 254 242 227 219 198 187 178 186 191 183 180 187 176 180 192 190 185 183 184 185 184 183 183 184 187 187 187 188 188 187 185 181 181 181 183 185 186
4 1 359 353 353 347 349 342 337 333 328 324 318 315 316 314 311 306 305 303 304 305 304 304 306 303 299 299 300 298 295 297 300 297 286 268 261 254 253 235 206 192 173 180 193 195 174 185 171 179 185 181 185 176 182 183 185 184 183 185 185 185 185 185 187 188 187 185 183 181 182 184 184 184
2 360 356 353 350 349 348 343 340 338 332 324 317 311 304 298 298 304 302 301 304 302 299 301 300 299 298 296 295 294 295 294 293 290 295 288 266 256 253 245 221 193 175 181 173 195 188 186 186 179 178 172 182 175 185 184 184 185 185 184 184 185 184 185 187 187 186 184 183 182 182 184 183 183
2 358 355 352 349 349 346 342 344 340 334 327 320 315 306 298 286 268 281 301 301 296 295 295 293 294 293 294 295 294 295 296 298 300 303 300 285 255 246 239 234 186 179 181 185 201 181 190 195 195 190 184 169 184 185 186 186 185 185 185 183 185 184 185 187 187 186 183 183 182 181 181 181 180
1 0 355 352 349 348 346 346 348 341 336 330 323 316 314 311 314 313 295 276 278 288 289 289 287 287 290 292 291 291 296 300 293 293 290 285 289 274 248 241 237 188 179 188 199 198 176 184 194 198 194 189 186 187 186 186 185 184 184 185 184 184 184 184 185 186 185 183 182 181 179 178 178 177
2 1 356 352 349 349 347 351 350 342 338 333 328 329 326 323 320 316 310 301 292 294 298 299 295 291 290 288 289 289 288 286 283 282 279 282 282 285 275 262 242 199 178 196 194 203 178 186 194 199 192 186 183 186 180 182 185 185 185 185 184 184 184 182 184 184 183 182 179 178 177 177 176 174
4 3 359 354 351 350 348 357 348 341 339 333 331 329 328 327 324 321 320 319 318 312 306 300 293 289 285 284 282 283 283 279 280 275 276 281 289 292 296 295 261 222 194 199 194 212 191 179 195 200 184 183 186 184 179 183 183 183 184 184 184 183 184 180 181 181 181 179 177 176 176 174 172 169
6 5 360 356 356 352 351 355 341 334 331 336 337 333 332 330 327 324 324 319 316 306 299 292 287 284 280 276 277 276 276 277 275 272 272 279 275 271 268 266 249 231 194 195 200 213 198 182 194 195 181 176 182 181 181 183 182 183 183 185 184 183 181 178 178 179 178 177 174 173 172 170 167 164
3 6 3 0 360 355 355 346 335 333 335 343 342 339 335 332 328 328 329 327 317 303 296 293 286 279 275 271 269 270 270 266 265 264 262 259 253 256 258 253 242 230 181 206 203 208 199 183 190 185 180 180 180 179 176 177 184 183 183 185 185 183 180 176 177 176 175 173 171 170 168 163 159 148
4 4 28 21 1 355 350 338 332 334 339 348 346 344 339 334 334 332 332 327 322 317 310 303 300 298 291 284 274 275 282 280 270 246 244 252 250 252 249 253 249 236 200 208 198 212 217 175 182 183 175 169 183 181 177 178 183 181 183 185 184 182 179 175 174 172 172 170 168 166 161 153 145 149
1 3 11 35 6 349 338 332 332 334 341 348 349 349 343 337 335 334 329 326 326 326 326 326 325 319 316 318 314 307 299 288 286 280 255 249 249 252 250 246 249 245 228 199 190 214 183 169 183 168 134 180 184 185 176 174 170 179 181 183 185 184 177 174 170 168 167 167 165 161 156 154 157 167
3 3 360 9 6 342 335 331 328 329 338 344 349 352 347 338 330 326 324 327 327 324 327 327 327 322 320 320 318 317 316 309 306 298 294 288 267 251 251 247 241 239 211 172 182 215 214 185 180 183 178 159 185 193 170 171 172 174 172 173 178 182 172 168 167 163 163 164 162 159 158 161 170 172
3 1 0 0 355 338 330 326 324 323 332 337 352 355 346 333 321 318 326 331 331 329 330 331 329 329 327 326 325 324 324 319 309 303 289 284 278 269 264 250 236 240 224 179 181 202 205 198 188 181 194 185 148 141 170 136 156 166 167 166 163 162 168 168 162 161 157 159 160 161 163 168 181 181
2 358 357 358 343 329 322 318 317 317 328 337 356 346 338 333 333 332 332 330 326 326 333 337 331 327 328 330 330 325 327 328 324 317 304 294 289 276 270 268 257 256 237 175 179 197 185 200 191 187 179 150 144 157 141 161 156 146 149 161 161 159 161 160 158 156 157 155 158 163 169 174 185 190
358 359 355 351 332 320 316 313 313 309 329 351 352 340 344 340 336 337 344 335 334 331 339 333 327 324 327 330 326 324 326 331 330 327 317 310 304 286 272 259 260 260 279 266 208 201 195 206 181 185 175 154 140 151 160 150 162 148 148 155 156 157 160 156 151 150 154 151 149 162 168 177 172 183
352 353 348 330 311 310 311 314 313 321 359 346 343 343 345 343 346 350 347 345 341 339 336 331 329 329 329 328 328 330 325 324 327 323 322 326 326 320 331 2 21 339 288 214 200 217 202 191 194 202 173 161 161 164 164 162 158 162 161 144 141 154 160 154 140 134 140 132 134 152 152 159 146 124
342 318 301 298 307 303 325 322 339 358 0 353 350 351 351 358 3 356 350 344 341 338 338 335 334 331 327 327 327 321 317 320 329 339 340 345 347 344 347 17 33 30 16 322 240 213 208 185 186 198 191 182 169 169 161 163 161 162 151 143 150 163 158 158 146 148 144 142 140 151 159 157 154 147
301 309 314 326 330 340 0 347 358 355 359 356 5 360 360 8 358 359 353 347 344 343 338 339 335 329 324 335 331 323 323 338 345 347 347 350 4 0 0 8 24 21 21 8 343 271 230 187 155 167 135 143 283 172 167 146 161 161 155 159 135 116 140 146 140 140 141 146 139 146 156 157 149 147
344 350 342 348 342 333 351 351 338 350 355 359 3 5 4 6 358 351 353 348 343 338 338 338 336 333 334 331 338 345 347 351 356 345 354 357 5 4 7 25 24 16 11 12 13 356 268 117 135 158 154 140 97 104 132 162 156 152 155 149 152 156 155 140 137 139 146 144 146 144 146 147 144 146
323 346 352 354 359 355 357 1 1 357 358 355 359 5 0 7 3 350 343 347 349 346 342 338 337 341 343 347 345 346 350 355 3 358 3 8 9 14 17 24 23 12 16 15 19 14 31 48 80 66 63 98 137 129 114 135 165 155 148 146 121 110 129 138 135 136 137 134 138 141 136 132 141 152
329 357 351 357 359 358 359 1 0 357 356 1 357 359 2 4 2 353 344 341 340 343 348 348 345 343 345 344 348 351 354 360 4 9 9 13 12 9 23 31 26 19 20 25 25 33 41 58 62 74 71 59 40 40 116 130 111 127 147 132 130 128 130 128 131 135 139 133 136 132 128 140 153 150
350 354 3 357 360 357 360 1 357 355 359 356 355 356 356 0 4 3 359 350 341 347 350 346 349 347 344 345 352 356 357 355 4 9 10 16 16 18 18 26 25 20 18 21 26 39 48 69 80 74 77 72 62 48 29 57 118 127 107 122 124 131 128 131 132 140 139 136 133 126 122 110 84 105
5 356 6 0 358 0 0 1 359 352 357 357 355 355 355 3 1 360 358 350 345 343 345 350 351 346 347 349 352 0 359 356 2 11 18 21 23 26 21 19 20 20 18 18 12 13 27 44 83 90 75 74 68 50 39 29 81 88 118 116 124 114 118 127 135 134 128 135 128 116 109 96 91 75
6 7 1 2 359 2 358 358 1 357 359 357 358 353 357 0 2 0 357 349 352 349 350 348 350 351 351 351 353 1 3 2 3 10 17 22 24 24 24 22 19 25 27 22 12 3 13 32 55 85 83 74 77 64 36 30 36 33 103 122 117 117 113 114 110 112 121 122 123 121 114 116 113 111
359 10 4 1 1 1 1 359 1 357 3 357 1 357 357 359 1 1 357 348 353 348 349 351 352 350 350 353 355 3 9 8 6 7 17 20 24 24 26 27 27 27 32 25 22 19 17 29 28 81 93 79 79 80 58 8 30 27 41 96 100 110 116 111 107 107 115 124 125 119 121 117 113 106
5 5 8 2 4 0 1 358 0 2 2 359 3 359 359 358 2 355 354 354 352 351 353 358 354 349 356 360 359 2 11 13 11 14 20 21 23 25 27 31 32 33 37 35 30 27 22 24 23 20 84 95 104 87 82 36 39 19 23 39 96 91 103 108 105 112 82 80 96 95 107 104 104 103
358 5 3 2 1 3 360 5 359 2 359 0 3 1 359 359 0 354 355 353 351 351 353 357 358 354 2 6 4 3 11 16 14 15 21 24 24 26 29 32 38 37 41 42 39 38 39 38 35 36 52 69 68 82 93 89 55 44 34 31 51 83 73 104 101 94 98 92 84 79 70 80 87 91
353 358 4 357 359 2 359 2 1 4 357 359 3 2 355 356 358 356 356 354 352 349 354 357 355 357 9 10 10 11 12 18 20 20 24 30 29 31 32 34 37 40 44 40 40 36 37 32 32 48 67 76 90 89 92 85 78 57 51 43 44 54 69 99 98 101 88 97 106 102 102 99 99 100
350 356 358 357 356 1 355 359 354 356 357 359 356 357 353 354 358 356 354 355 354 352 354 357 359 1 9 15 14 17 18 15 22 24 22 31 37 35 33 35 41 36 43 43 42 43 42 39 37 37 55 79 92 88 69 65 62 58 55 50 49 56 55 58 81 94 93 86 92 97 97 95 102 96
348 352 352 356 355 355 356 356 354 357 356 357 357 356 356 355 359 349 351 357 356 355 355 360 2 3 7 17 17 20 24 24 22 26 29 30 34 35 35 40 41 34 40 42 38 42 41 47 47 51 53 57 65 73 70 73 79 73 70 64 63 53 58 62 59 59 61 76 93 94 94 94 98 101
353 351 353 354 355 356 357 356 355 358 357 357 355 356 355 356 357 357 1 358 359 358 359 1 1 3 3 14 16 21 24 26 25 27 31 35 36 41 39 36 36 38 43 47 46 45 48 45 45 48 44 44 59 73 76 75 74 76 74 74 70 71 65 65 68 67 62 57 57 71 67 104 135 128
353 349 355 352 353 358 356 357 355 356 359 357 353 355 356 357 358 358 1 359 358 357 358 0 360 4 2 11 14 18 27 26 29 29 34 36 40 42 47 46 44 44 49 53 54 52 54 54 52 47 55 46 33 62 73 74 71 67 70 70 64 64 65 65 67 63 56 42 38 58 65 70 69 80
353 349 353 350 351 356 353 354 353 353 359 356 353 357 353 359 357 357 2 0 359 354 358 1 0 3 1 10 15 15 21 29 30 33 34 38 39 44 48 51 53 52 51 48 56 58 58 58 59 59 61 55 51 63 65 70 74 77 72 73 64 63 63 67 66 61 52 52 25 51 67 70 78 86